,,PA_Meas_PMT16A,,PR_Meas_QMR101_102,,RH_Meas_QMH101,,SR_Meas_QMS101,,TA_Meas_QMH101,,GenWind,,GenWind,
time,status,PA,status,PR,status,RH,status,SR,status,TA,status,DirAvg,status,SpdAvg,
2013-08-30, 00:00:05,VALID,918.132,VALID,0,VALID,91.5115,VALID,0,VALID,20.6959,VALID,136,VALID,0,
2013-08-30, 00:01:05,VALID,918.118,VALID,0,VALID,91.5648,VALID,0,VALID,20.6975,VALID,136,VALID,0,
2013-08-30, 00:02:05,VALID,918.097,VALID,0,VALID,91.664,VALID,0.107441,VALID,20.6975,VALID,136,VALID,0,
2013-08-30, 00:03:05,VALID,918.137,VALID,0,VALID,91.9384,VALID,0,VALID,20.678,VALID,136,VALID,0,
2013-08-30, 00:04:05,VALID,918.124,VALID,0,VALID,92.19,VALID,0,VALID,20.6975,VALID,136,VALID,0,
2013-08-30, 00:05:05,VALID,918.121,VALID,0,VALID,92.4187,VALID,0,VALID,20.678,VALID,136,VALID,0,
2013-08-30, 00:06:05,VALID,918.129,VALID,0,VALID,92.4492,VALID,0,VALID,20.678,VALID,136,VALID,0,
2013-08-30, 00:07:05,VALID,918.131,VALID,0,VALID,92.2738,VALID,0,VALID,20.66,VALID,136,VALID,0,
2013-08-30, 00:08:05,VALID,918.148,VALID,0,VALID,92.472,VALID,0,VALID,20.6194,VALID,136,VALID,0,
2013-08-30, 00:09:05,VALID,918.123,VALID,0,VALID,92.7007,VALID,0,VALID,20.6194,VALID,136,VALID,0,
2013-08-30, 00:10:05,VALID,918.156,VALID,0,VALID,92.8685,VALID,0,VALID,20.5804,VALID,136,VALID,0,
2013-08-30, 00:11:05,VALID,918.133,VALID,0,VALID,93.0438,VALID,0,VALID,20.5804,VALID,136,VALID,0,
2013-08-30, 00:12:05,VALID,918.113,VALID,0,VALID,92.251,VALID,0,VALID,20.4244,VALID,136,VALID,0,
2013-08-30, 00:13:05,VALID,918.132,VALID,0,VALID,92.4415,VALID,0,VALID,20.3464,VALID,123,VALID,0,
2013-08-30, 00:14:05,VALID,918.108,VALID,0,VALID,93.0285,VALID,0,VALID,20.3074,VALID,115,VALID,0,
2013-08-30, 00:15:05,VALID,918.116,VALID,0,VALID,93.3792,VALID,0,VALID,20.2684,VALID,115,VALID,0,
2013-08-30, 00:16:05,VALID,918.168,VALID,0,VALID,93.4936,VALID,0,VALID,20.1903,VALID,115,VALID,0,
2013-08-30, 00:17:05,VALID,918.143,VALID,0,VALID,94.1492,VALID,0,VALID,20.1708,VALID,115,VALID,0,
2013-08-30, 00:18:05,VALID,918.13,VALID,0,VALID,94.5685,VALID,0.107441,VALID,20.2293,VALID,115,VALID,0,
2013-08-30, 00:19:05,VALID,918.122,VALID,0,VALID,94.8963,VALID,0,VALID,20.2489,VALID,36,VALID,0,
2013-08-30, 00:20:05,VALID,918.111,VALID,0,VALID,95.1097,VALID,0,VALID,20.2879,VALID,11,VALID,0,
2013-08-30, 00:21:05,VALID,918.1,VALID,0,VALID,95.2851,VALID,0,VALID,20.3269,VALID,11,VALID,0,
2013-08-30, 00:22:05,VALID,918.084,VALID,0,VALID,95.3994,VALID,0,VALID,20.3464,VALID,11,VALID,0,
2013-08-30, 00:23:05,VALID,918.091,VALID,0,VALID,95.4909,VALID,0,VALID,20.3464,VALID,11,VALID,0,
2013-08-30, 00:24:05,VALID,918.072,VALID,0,VALID,95.5671,VALID,0,VALID,20.3464,VALID,11,VALID,0,
2013-08-30, 00:25:05,VALID,918.067,VALID,0,VALID,95.6357,VALID,0,VALID,20.3659,VALID,11,VALID,0,
2013-08-30, 00:26:05,VALID,918.043,VALID,0,VALID,95.7196,VALID,0,VALID,20.4049,VALID,11,VALID,0,
2013-08-30, 00:27:05,VALID,918.034,VALID,0,VALID,95.7349,VALID,0,VALID,20.4259,VALID,11,VALID,0,
2013-08-30, 00:28:05,VALID,918.048,VALID,0,VALID,95.651,VALID,0,VALID,20.3464,VALID,11,VALID,0,
2013-08-30, 00:29:05,VALID,918.018,VALID,0,VALID,95.6815,VALID,0,VALID,20.3659,VALID,11,VALID,0,
2013-08-30, 00:30:05,VALID,918.052,VALID,0,VALID,95.7577,VALID,0,VALID,20.4049,VALID,11,VALID,0,
2013-08-30, 00:31:05,VALID,918.015,VALID,0,VALID,95.8035,VALID,0,VALID,20.4049,VALID,11,VALID,0,
2013-08-30, 00:32:05,VALID,918.017,VALID,0,VALID,95.834,VALID,0,VALID,20.3854,VALID,11,VALID,0,
2013-08-30, 00:33:05,VALID,917.985,VALID,0,VALID,95.8645,VALID,0,VALID,20.4244,VALID,11,VALID,0,
2013-08-30, 00:34:05,VALID,917.937,VALID,0,VALID,95.8873,VALID,0,VALID,20.4244,VALID,11,VALID,0,
2013-08-30, 00:35:05,VALID,917.961,VALID,0,VALID,95.895,VALID,0,VALID,20.4049,VALID,11,VALID,0,
2013-08-30, 00:36:05,VALID,917.962,VALID,0,VALID,95.895,VALID,0,VALID,20.3854,VALID,5,VALID,0,
2013-08-30, 00:37:05,VALID,917.945,VALID,0,VALID,95.9026,VALID,0,VALID,20.3659,VALID,355,VALID,0,
2013-08-30, 00:38:05,VALID,917.938,VALID,0,VALID,95.9331,VALID,0,VALID,20.3464,VALID,352,VALID,0,
2013-08-30, 00:39:05,VALID,917.891,VALID,0,VALID,95.9636,VALID,0,VALID,20.3674,VALID,346,VALID,0,
2013-08-30, 00:40:05,VALID,917.923,VALID,0,VALID,95.9788,VALID,0,VALID,20.3269,VALID,346,VALID,0,
2013-08-30, 00:41:05,VALID,917.898,VALID,0,VALID,96.0093,VALID,0,VALID,20.3464,VALID,342,VALID,0,
2013-08-30, 00:42:05,VALID,917.849,VALID,0,VALID,96.0474,VALID,0,VALID,20.3269,VALID,344,VALID,0,
2013-08-30, 00:43:05,VALID,917.857,VALID,0,VALID,96.055,VALID,0,VALID,20.3269,VALID,346,VALID,0,
2013-08-30, 00:44:05,VALID,917.824,VALID,0,VALID,96.116,VALID,0,VALID,20.3058,VALID,358,VALID,0,
2013-08-30, 00:45:05,VALID,917.832,VALID,0,VALID,96.116,VALID,0,VALID,20.3269,VALID,340,VALID,0,
2013-08-30, 00:46:05,VALID,917.78,VALID,0,VALID,96.1313,VALID,0,VALID,20.3269,VALID,332,VALID,0,
2013-08-30, 00:47:05,VALID,917.761,VALID,0,VALID,96.1618,VALID,0,VALID,20.3269,VALID,320,VALID,0,
2013-08-30, 00:48:05,VALID,917.766,VALID,0,VALID,96.1846,VALID,0,VALID,20.3269,VALID,318,VALID,0,
2013-08-30, 00:49:05,VALID,917.781,VALID,0,VALID,96.1999,VALID,0,VALID,20.3269,VALID,351,VALID,0,
2013-08-30, 00:50:05,VALID,917.783,VALID,0,VALID,96.2228,VALID,0,VALID,20.3074,VALID,350,VALID,0,
2013-08-30, 00:51:05,VALID,917.75,VALID,0,VALID,96.2151,VALID,0,VALID,20.3074,VALID,312,VALID,0,
2013-08-30, 00:52:05,VALID,917.786,VALID,0,VALID,96.2228,VALID,0,VALID,20.3464,VALID,312,VALID,0,
2013-08-30, 00:53:05,VALID,917.788,VALID,0,VALID,96.2456,VALID,0,VALID,20.3464,VALID,312,VALID,0,
2013-08-30, 00:54:05,VALID,917.788,VALID,0,VALID,96.2609,VALID,0,VALID,20.3659,VALID,312,VALID,0,
2013-08-30, 00:55:05,VALID,917.822,VALID,0,VALID,96.2609,VALID,0,VALID,20.3869,VALID,312,VALID,0,
2013-08-30, 00:56:05,VALID,917.823,VALID,0,VALID,96.2914,VALID,0,VALID,20.3854,VALID,312,VALID,0,
2013-08-30, 00:57:05,VALID,917.841,VALID,0,VALID,96.2761,VALID,0,VALID,20.3854,VALID,312,VALID,0,
2013-08-30, 00:58:05,VALID,917.842,VALID,0,VALID,96.2837,VALID,0,VALID,20.4064,VALID,312,VALID,0,
2013-08-30, 00:59:05,VALID,917.825,VALID,0,VALID,96.2761,VALID,0,VALID,20.4064,VALID,223,VALID,0,
2013-08-30, 01:00:05,VALID,917.799,VALID,0,VALID,96.2837,VALID,0,VALID,20.3869,VALID,177,VALID,0,
2013-08-30, 01:01:05,VALID,917.807,VALID,0,VALID,96.2761,VALID,0,VALID,20.3659,VALID,192,VALID,0,
2013-08-30, 01:02:05,VALID,917.805,VALID,0,VALID,96.2837,VALID,0,VALID,20.3659,VALID,188,VALID,0,
2013-08-30, 01:03:05,VALID,917.812,VALID,0,VALID,96.2914,VALID,0,VALID,20.3464,VALID,188,VALID,0,
2013-08-30, 01:04:05,VALID,917.802,VALID,0,VALID,96.2914,VALID,0,VALID,20.3869,VALID,188,VALID,0,
2013-08-30, 01:05:05,VALID,917.774,VALID,0,VALID,96.3066,VALID,0,VALID,20.3869,VALID,188,VALID,0,
2013-08-30, 01:06:05,VALID,917.742,VALID,0,VALID,96.2837,VALID,0,VALID,20.3659,VALID,201,VALID,0,
2013-08-30, 01:07:05,VALID,917.692,VALID,0,VALID,96.299,VALID,0,VALID,20.3854,VALID,201,VALID,0,
2013-08-30, 01:08:05,VALID,917.657,VALID,0,VALID,96.3066,VALID,0,VALID,20.4049,VALID,201,VALID,0,
2013-08-30, 01:09:05,VALID,917.652,VALID,0,VALID,96.3295,VALID,0,VALID,20.4049,VALID,248,VALID,0,
2013-08-30, 01:10:05,VALID,917.655,VALID,0,VALID,96.3295,VALID,0,VALID,20.4049,VALID,248,VALID,0,
2013-08-30, 01:11:05,VALID,917.628,VALID,0,VALID,96.3447,VALID,0,VALID,20.4259,VALID,248,VALID,0,
2013-08-30, 01:12:05,VALID,917.622,VALID,0,VALID,96.3524,VALID,0,VALID,20.4049,VALID,248,VALID,0,
2013-08-30, 01:13:05,VALID,917.619,VALID,0,VALID,96.36,VALID,0,VALID,20.4244,VALID,248,VALID,0,
2013-08-30, 01:14:05,VALID,917.606,VALID,0,VALID,96.36,VALID,0,VALID,20.4244,VALID,248,VALID,0,
2013-08-30, 01:15:05,VALID,917.591,VALID,0,VALID,96.3676,VALID,0,VALID,20.4244,VALID,217,VALID,0,
2013-08-30, 01:16:05,VALID,917.625,VALID,0,VALID,96.3752,VALID,0,VALID,20.4244,VALID,217,VALID,0,
2013-08-30, 01:17:05,VALID,917.584,VALID,0,VALID,96.36,VALID,0,VALID,20.4244,VALID,217,VALID,0,
2013-08-30, 01:18:05,VALID,917.588,VALID,0,VALID,96.3676,VALID,0,VALID,20.4259,VALID,221,VALID,0,
2013-08-30, 01:19:05,VALID,917.558,VALID,0,VALID,96.36,VALID,0,VALID,20.4049,VALID,224,VALID,0,
2013-08-30, 01:20:05,VALID,917.518,VALID,0,VALID,96.3676,VALID,0,VALID,20.3854,VALID,221,VALID,0,
2013-08-30, 01:21:05,VALID,917.529,VALID,0,VALID,96.36,VALID,0,VALID,20.3854,VALID,222,VALID,0,
2013-08-30, 01:22:05,VALID,917.514,VALID,0,VALID,96.3752,VALID,0,VALID,20.3659,VALID,222,VALID,0,
2013-08-30, 01:23:05,VALID,917.49,VALID,0,VALID,96.36,VALID,0,VALID,20.3674,VALID,222,VALID,0,
2013-08-30, 01:24:05,VALID,917.466,VALID,0,VALID,96.36,VALID,0,VALID,20.3269,VALID,221,VALID,0,
2013-08-30, 01:25:05,VALID,917.465,VALID,0,VALID,96.36,VALID,0,VALID,20.3269,VALID,221,VALID,0,
2013-08-30, 01:26:05,VALID,917.457,VALID,0,VALID,96.3829,VALID,0,VALID,20.3269,VALID,220,VALID,0,
2013-08-30, 01:27:05,VALID,917.456,VALID,0,VALID,96.3829,VALID,0,VALID,20.3674,VALID,217,VALID,0,
2013-08-30, 01:28:05,VALID,917.452,VALID,0,VALID,96.3752,VALID,0,VALID,20.3074,VALID,217,VALID,0,
2013-08-30, 01:29:05,VALID,917.454,VALID,0,VALID,96.3905,VALID,0,VALID,20.3284,VALID,217,VALID,0,
2013-08-30, 01:30:05,VALID,917.461,VALID,0,VALID,96.3676,VALID,0,VALID,20.3074,VALID,217,VALID,0,
2013-08-30, 01:31:05,VALID,917.452,VALID,0,VALID,96.3905,VALID,0,VALID,20.3074,VALID,217,VALID,0,
2013-08-30, 01:32:05,VALID,917.452,VALID,0,VALID,96.4057,VALID,0,VALID,20.3074,VALID,217,VALID,0,
2013-08-30, 01:33:05,VALID,917.474,VALID,0,VALID,96.3905,VALID,0,VALID,20.2668,VALID,217,VALID,0,
2013-08-30, 01:34:05,VALID,917.458,VALID,0,VALID,96.36,VALID,0,VALID,20.2879,VALID,217,VALID,0,
2013-08-30, 01:35:05,VALID,917.435,VALID,0,VALID,96.3676,VALID,0,VALID,20.2699,VALID,216,VALID,0,
2013-08-30, 01:36:05,VALID,917.468,VALID,0,VALID,96.3981,VALID,0,VALID,20.2293,VALID,216,VALID,0,
2013-08-30, 01:37:05,VALID,917.461,VALID,0,VALID,96.36,VALID,0,VALID,20.2293,VALID,216,VALID,0,
2013-08-30, 01:38:05,VALID,917.455,VALID,0,VALID,96.3447,VALID,0,VALID,20.2293,VALID,216,VALID,0,
2013-08-30, 01:39:05,VALID,917.43,VALID,0,VALID,96.3676,VALID,0,VALID,20.2489,VALID,216,VALID,0,
2013-08-30, 01:40:05,VALID,917.461,VALID,0,VALID,96.3676,VALID,0,VALID,20.2489,VALID,216,VALID,0,
2013-08-30, 01:41:05,VALID,917.453,VALID,0,VALID,96.3371,VALID,0,VALID,20.2489,VALID,216,VALID,0,
2013-08-30, 01:42:04,VALID,917.444,VALID,0,VALID,96.3524,VALID,0,VALID,20.2489,VALID,216,VALID,0,
2013-08-30, 01:43:04,VALID,917.456,VALID,0,VALID,96.3371,VALID,0,VALID,20.2098,VALID,216,VALID,0,
2013-08-30, 01:44:04,VALID,917.453,VALID,0,VALID,96.3295,VALID,0,VALID,20.2114,VALID,216,VALID,0,
2013-08-30, 01:45:04,VALID,917.454,VALID,0,VALID,96.3447,VALID,0,VALID,20.1903,VALID,216,VALID,0,
2013-08-30, 01:46:04,VALID,917.451,VALID,0,VALID,96.3447,VALID,0,VALID,20.1498,VALID,206,VALID,0,
2013-08-30, 01:47:04,VALID,917.439,VALID,0,VALID,96.3447,VALID,0,VALID,20.1708,VALID,206,VALID,0,
2013-08-30, 01:48:04,VALID,917.424,VALID,0,VALID,96.3524,VALID,0,VALID,20.1708,VALID,206,VALID,0,
2013-08-30, 01:49:04,VALID,917.402,VALID,0,VALID,96.3447,VALID,0,VALID,20.2098,VALID,206,VALID,0,
2013-08-30, 01:50:04,VALID,917.411,VALID,0,VALID,96.3752,VALID,0,VALID,20.2098,VALID,206,VALID,0,
2013-08-30, 01:51:04,VALID,917.365,VALID,0,VALID,96.3829,VALID,0,VALID,20.2504,VALID,206,VALID,0,
2013-08-30, 01:52:04,VALID,917.34,VALID,0,VALID,96.3905,VALID,0,VALID,20.2699,VALID,206,VALID,0,
2013-08-30, 01:53:04,VALID,917.333,VALID,0,VALID,96.3829,VALID,0,VALID,20.2083,VALID,206,VALID,0,
2013-08-30, 01:54:04,VALID,917.308,VALID,0,VALID,96.3752,VALID,0,VALID,20.2098,VALID,206,VALID,0,
2013-08-30, 01:55:04,VALID,917.348,VALID,0,VALID,96.3447,VALID,0,VALID,20.1903,VALID,205,VALID,0,
2013-08-30, 01:56:04,VALID,917.298,VALID,0,VALID,96.3752,VALID,0,VALID,20.1903,VALID,205,VALID,0,
2013-08-30, 01:57:04,VALID,917.282,VALID,0,VALID,96.3524,VALID,0,VALID,20.1513,VALID,205,VALID,0,
2013-08-30, 01:58:04,VALID,917.279,VALID,0,VALID,96.3752,VALID,0,VALID,20.1513,VALID,152,VALID,0,
2013-08-30, 01:59:04,VALID,917.257,VALID,0,VALID,96.36,VALID,0,VALID,20.1318,VALID,152,VALID,0,
2013-08-30, 02:00:04,VALID,917.279,VALID,0,VALID,96.36,VALID,0,VALID,20.0928,VALID,129,VALID,0,
2013-08-30, 02:01:04,VALID,917.248,VALID,0,VALID,96.3829,VALID,0,VALID,20.0928,VALID,129,VALID,0,
2013-08-30, 02:02:04,VALID,917.244,VALID,0,VALID,96.4057,VALID,0,VALID,20.0928,VALID,129,VALID,0,
2013-08-30, 02:03:04,VALID,917.249,VALID,0,VALID,96.4057,VALID,0,VALID,20.0928,VALID,129,VALID,0,
2013-08-30, 02:04:04,VALID,917.222,VALID,0,VALID,96.421,VALID,0,VALID,20.0928,VALID,129,VALID,0,
2013-08-30, 02:05:04,VALID,917.231,VALID,0,VALID,96.4438,VALID,0,VALID,20.0928,VALID,129,VALID,0,
2013-08-30, 02:06:04,VALID,917.203,VALID,0,VALID,96.4286,VALID,0,VALID,20.0928,VALID,129,VALID,0,
2013-08-30, 02:07:04,VALID,917.216,VALID,0,VALID,96.4743,VALID,0,VALID,20.0733,VALID,129,VALID,0,
2013-08-30, 02:08:04,VALID,917.239,VALID,0,VALID,96.4896,VALID,0,VALID,20.0538,VALID,129,VALID,0,
2013-08-30, 02:09:04,VALID,917.196,VALID,0,VALID,96.4667,VALID,0,VALID,20.0733,VALID,129,VALID,0,
2013-08-30, 02:10:04,VALID,917.226,VALID,0,VALID,96.4819,VALID,0,VALID,20.0733,VALID,129,VALID,0,
2013-08-30, 02:11:04,VALID,917.187,VALID,0,VALID,96.4972,VALID,0,VALID,20.0733,VALID,129,VALID,0,
2013-08-30, 02:12:04,VALID,917.184,VALID,0,VALID,96.5124,VALID,0,VALID,20.0538,VALID,129,VALID,0,
2013-08-30, 02:13:04,VALID,917.172,VALID,0,VALID,96.5201,VALID,0,VALID,20.0733,VALID,129,VALID,0,
2013-08-30, 02:14:04,VALID,917.152,VALID,0,VALID,96.5201,VALID,0,VALID,20.0538,VALID,129,VALID,0,
2013-08-30, 02:15:04,VALID,917.175,VALID,0,VALID,96.5277,VALID,0,VALID,20.0538,VALID,129,VALID,0,
2013-08-30, 02:16:04,VALID,917.175,VALID,0,VALID,96.5582,VALID,0,VALID,20.0538,VALID,129,VALID,0,
2013-08-30, 02:17:04,VALID,917.174,VALID,0,VALID,96.5277,VALID,0,VALID,20.0733,VALID,129,VALID,0,
2013-08-30, 02:18:04,VALID,917.15,VALID,0,VALID,96.5506,VALID,0,VALID,20.0733,VALID,129,VALID,0,
2013-08-30, 02:19:04,VALID,917.168,VALID,0,VALID,96.5582,VALID,0,VALID,20.0928,VALID,129,VALID,0,
2013-08-30, 02:20:04,VALID,917.186,VALID,0,VALID,96.5582,VALID,0,VALID,20.1123,VALID,129,VALID,0,
2013-08-30, 02:21:04,VALID,917.199,VALID,0,VALID,96.5811,VALID,0,VALID,20.1123,VALID,129,VALID,0,
2013-08-30, 02:22:04,VALID,917.198,VALID,0,VALID,96.5963,VALID,0,VALID,20.1108,VALID,131,VALID,0,
2013-08-30, 02:23:04,VALID,917.197,VALID,0,VALID,96.5963,VALID,0,VALID,20.1529,VALID,132,VALID,0,
2013-08-30, 02:24:04,VALID,917.195,VALID,0,VALID,96.5887,VALID,0,VALID,20.1919,VALID,132,VALID,0,
2013-08-30, 02:25:04,VALID,917.197,VALID,0,VALID,96.6039,VALID,0,VALID,20.1708,VALID,132,VALID,0,
2013-08-30, 02:26:04,VALID,917.186,VALID,0,VALID,96.6115,VALID,0,VALID,20.1513,VALID,132,VALID,0,
2013-08-30, 02:27:04,VALID,917.132,VALID,0,VALID,96.6192,VALID,0,VALID,20.1513,VALID,132,VALID,0,
2013-08-30, 02:28:04,VALID,917.107,VALID,0,VALID,96.6344,VALID,0,VALID,20.1318,VALID,139,VALID,0,
2013-08-30, 02:29:04,VALID,917.114,VALID,0,VALID,96.6268,VALID,0,VALID,20.1919,VALID,149,VALID,0,
2013-08-30, 02:30:04,VALID,917.087,VALID,0,VALID,96.6344,VALID,0,VALID,20.1513,VALID,171,VALID,0,
2013-08-30, 02:31:04,VALID,917.079,VALID,0,VALID,96.642,VALID,0,VALID,20.1724,VALID,171,VALID,0,
2013-08-30, 02:32:04,VALID,917.068,VALID,0,VALID,96.642,VALID,0,VALID,20.1708,VALID,171,VALID,0,
2013-08-30, 02:33:04,VALID,917.083,VALID,0,VALID,96.6344,VALID,0,VALID,20.1513,VALID,171,VALID,0,
2013-08-30, 02:34:04,VALID,917.045,VALID,0,VALID,96.642,VALID,0,VALID,20.1708,VALID,171,VALID,0,
2013-08-30, 02:35:04,VALID,917.055,VALID,0,VALID,96.642,VALID,0,VALID,20.1708,VALID,171,VALID,0,
2013-08-30, 02:36:04,VALID,917.036,VALID,0,VALID,96.6725,VALID,0,VALID,20.1708,VALID,171,VALID,0,
2013-08-30, 02:37:04,VALID,917.018,VALID,0,VALID,96.6649,VALID,0,VALID,20.1708,VALID,171,VALID,0,
2013-08-30, 02:38:04,VALID,917.011,VALID,0,VALID,96.6573,VALID,0,VALID,20.1708,VALID,171,VALID,0,
2013-08-30, 02:39:04,VALID,917.01,VALID,0,VALID,96.6725,VALID,0,VALID,20.1513,VALID,171,VALID,0,
2013-08-30, 02:40:04,VALID,916.992,VALID,0,VALID,96.6649,VALID,0,VALID,20.1903,VALID,171,VALID,0,
2013-08-30, 02:41:04,VALID,916.981,VALID,0,VALID,96.6802,VALID,0,VALID,20.1708,VALID,171,VALID,0,
2013-08-30, 02:42:04,VALID,916.962,VALID,0,VALID,96.6802,VALID,0,VALID,20.1708,VALID,171,VALID,0,
2013-08-30, 02:43:04,VALID,916.939,VALID,0,VALID,96.6649,VALID,0,VALID,20.1708,VALID,171,VALID,0,
2013-08-30, 02:44:04,VALID,916.926,VALID,0,VALID,96.6802,VALID,0,VALID,20.1903,VALID,171,VALID,0,
2013-08-30, 02:45:04,VALID,916.95,VALID,0,VALID,96.6802,VALID,0,VALID,20.1708,VALID,171,VALID,0,
2013-08-30, 02:46:04,VALID,916.927,VALID,0,VALID,96.6725,VALID,0,VALID,20.1708,VALID,171,VALID,0,
2013-08-30, 02:47:04,VALID,916.912,VALID,0,VALID,96.6649,VALID,0,VALID,20.1708,VALID,171,VALID,0,
2013-08-30, 02:48:04,VALID,916.928,VALID,0,VALID,96.6878,VALID,0,VALID,20.1903,VALID,171,VALID,0,
2013-08-30, 02:49:04,VALID,916.872,VALID,0,VALID,96.6649,VALID,0,VALID,20.2098,VALID,171,VALID,0,
2013-08-30, 02:50:04,VALID,916.885,VALID,0,VALID,96.6802,VALID,0,VALID,20.2489,VALID,171,VALID,0,
2013-08-30, 02:51:04,VALID,916.908,VALID,0,VALID,96.6725,VALID,0,VALID,20.2879,VALID,171,VALID,0,
2013-08-30, 02:52:04,VALID,916.913,VALID,0,VALID,96.6725,VALID,0,VALID,20.2879,VALID,171,VALID,0,
2013-08-30, 02:53:04,VALID,916.938,VALID,0,VALID,96.6573,VALID,0,VALID,20.3074,VALID,171,VALID,0,
2013-08-30, 02:54:04,VALID,916.923,VALID,0,VALID,96.6573,VALID,0,VALID,20.3269,VALID,171,VALID,0,
2013-08-30, 02:55:04,VALID,916.903,VALID,0,VALID,96.6649,VALID,0,VALID,20.3269,VALID,171,VALID,0,
2013-08-30, 02:56:04,VALID,916.925,VALID,0,VALID,96.6649,VALID,0,VALID,20.3269,VALID,171,VALID,0,
2013-08-30, 02:57:04,VALID,916.975,VALID,0,VALID,96.6497,VALID,0,VALID,20.3674,VALID,171,VALID,0,
2013-08-30, 02:58:04,VALID,916.934,VALID,0,VALID,96.6344,VALID,0,VALID,20.3074,VALID,171,VALID,0,
2013-08-30, 02:59:04,VALID,916.951,VALID,0,VALID,96.6344,VALID,0.107441,VALID,20.3058,VALID,171,VALID,0,
2013-08-30, 03:00:04,VALID,916.957,VALID,0,VALID,96.6192,VALID,0,VALID,20.3058,VALID,171,VALID,0,
2013-08-30, 03:01:04,VALID,916.935,VALID,0,VALID,96.6344,VALID,0,VALID,20.3074,VALID,171,VALID,0,
2013-08-30, 03:02:04,VALID,916.939,VALID,0,VALID,96.6115,VALID,0,VALID,20.3074,VALID,171,VALID,0,
2013-08-30, 03:03:04,VALID,916.93,VALID,0,VALID,96.6192,VALID,0.107441,VALID,20.3269,VALID,171,VALID,0,
2013-08-30, 03:04:04,VALID,916.945,VALID,0,VALID,96.5887,VALID,0,VALID,20.3058,VALID,171,VALID,0,
2013-08-30, 03:05:04,VALID,916.951,VALID,0,VALID,96.5887,VALID,0,VALID,20.2879,VALID,171,VALID,0,
2013-08-30, 03:06:04,VALID,916.954,VALID,0,VALID,96.5353,VALID,0,VALID,20.3074,VALID,171,VALID,0,
2013-08-30, 03:07:04,VALID,916.88,VALID,0,VALID,96.4972,VALID,0,VALID,20.2879,VALID,171,VALID,0,
2013-08-30, 03:08:04,VALID,916.923,VALID,0,VALID,96.4133,VALID,0,VALID,20.3074,VALID,171,VALID,0,
2013-08-30, 03:09:04,VALID,916.932,VALID,0,VALID,96.3219,VALID,0,VALID,20.3464,VALID,171,VALID,0,
2013-08-30, 03:10:04,VALID,916.89,VALID,0,VALID,96.1618,VALID,0,VALID,20.3074,VALID,81,VALID,0,
2013-08-30, 03:11:04,VALID,916.891,VALID,0,VALID,96.0093,VALID,0,VALID,20.3269,VALID,81,VALID,0,
2013-08-30, 03:12:04,VALID,916.906,VALID,0,VALID,95.9102,VALID,0,VALID,20.3074,VALID,81,VALID,0,
2013-08-30, 03:13:04,VALID,916.896,VALID,0,VALID,95.8187,VALID,0,VALID,20.2684,VALID,81,VALID,0,
2013-08-30, 03:14:04,VALID,916.91,VALID,0,VALID,95.7272,VALID,0,VALID,20.2293,VALID,81,VALID,0,
2013-08-30, 03:15:04,VALID,916.908,VALID,0,VALID,95.6815,VALID,0,VALID,20.1903,VALID,81,VALID,0,
2013-08-30, 03:16:04,VALID,916.932,VALID,0,VALID,95.7044,VALID,0,VALID,20.1903,VALID,81,VALID,0,
2013-08-30, 03:17:04,VALID,916.909,VALID,0,VALID,95.6891,VALID,0,VALID,20.1888,VALID,81,VALID,0,
2013-08-30, 03:18:04,VALID,916.971,VALID,0,VALID,95.6205,VALID,0,VALID,20.1903,VALID,91,VALID,0,
2013-08-30, 03:19:04,VALID,916.938,VALID,0,VALID,95.4757,VALID,0,VALID,20.1123,VALID,115,VALID,0,
2013-08-30, 03:20:04,VALID,916.962,VALID,0,VALID,95.4299,VALID,0.107441,VALID,20.0523,VALID,115,VALID,0,
2013-08-30, 03:21:04,VALID,916.962,VALID,0,VALID,95.4757,VALID,0,VALID,20.0733,VALID,115,VALID,0,
2013-08-30, 03:22:04,VALID,916.939,VALID,0,VALID,95.5595,VALID,0.107441,VALID,20.0928,VALID,194,VALID,0,
2013-08-30, 03:23:04,VALID,916.953,VALID,0,VALID,95.6739,VALID,0.107441,VALID,20.1123,VALID,260,VALID,0,
2013-08-30, 03:24:04,VALID,916.972,VALID,0,VALID,95.7349,VALID,0,VALID,20.0928,VALID,254,VALID,0,
2013-08-30, 03:25:04,VALID,916.975,VALID,0,VALID,95.7958,VALID,0,VALID,20.0733,VALID,248,VALID,0,
2013-08-30, 03:26:04,VALID,916.974,VALID,0,VALID,95.8416,VALID,0.107441,VALID,20.0733,VALID,242,VALID,0,
2013-08-30, 03:27:04,VALID,917.01,VALID,0,VALID,95.895,VALID,0.107441,VALID,20.0538,VALID,242,VALID,0,
2013-08-30, 03:28:04,VALID,917.047,VALID,0,VALID,95.9636,VALID,0,VALID,20.0538,VALID,242,VALID,0,
2013-08-30, 03:29:04,VALID,917.01,VALID,0,VALID,95.9864,VALID,0,VALID,20.0553,VALID,242,VALID,0,
2013-08-30, 03:30:04,VALID,917.036,VALID,0,VALID,96.0398,VALID,0,VALID,20.0343,VALID,242,VALID,0,
2013-08-30, 03:31:04,VALID,917.047,VALID,0,VALID,96.0474,VALID,0,VALID,19.9968,VALID,160,VALID,0,
2013-08-30, 03:32:04,VALID,916.994,VALID,0,VALID,96.0398,VALID,0,VALID,19.9773,VALID,165,VALID,0,
2013-08-30, 03:33:04,VALID,917.001,VALID,0,VALID,96.0398,VALID,0,VALID,19.9578,VALID,170,VALID,0,
2013-08-30, 03:34:04,VALID,916.972,VALID,0,VALID,96.0169,VALID,0,VALID,19.9578,VALID,157,VALID,0,
2013-08-30, 03:35:04,VALID,916.964,VALID,0,VALID,95.9788,VALID,0,VALID,19.9383,VALID,150,VALID,0,
2013-08-30, 03:36:04,VALID,916.984,VALID,0,VALID,95.9026,VALID,0,VALID,19.8993,VALID,106,VALID,0,
2013-08-30, 03:37:04,VALID,916.978,VALID,0,VALID,95.8187,VALID,0,VALID,19.8393,VALID,106,VALID,0,
2013-08-30, 03:38:04,VALID,916.989,VALID,0,VALID,95.7577,VALID,0,VALID,19.8798,VALID,106,VALID,0,
2013-08-30, 03:39:04,VALID,916.994,VALID,0,VALID,95.651,VALID,0,VALID,19.8393,VALID,127,VALID,0,
2013-08-30, 03:40:04,VALID,916.981,VALID,0,VALID,95.4375,VALID,0,VALID,19.9188,VALID,137,VALID,0,
2013-08-30, 03:41:04,VALID,916.989,VALID,0,VALID,95.0488,VALID,0,VALID,19.9758,VALID,173,VALID,0,
2013-08-30, 03:42:04,VALID,916.985,VALID,0,VALID,93.6003,VALID,0,VALID,20.0944,VALID,126,VALID,0,
2013-08-30, 03:43:04,VALID,916.974,VALID,0,VALID,92.1976,VALID,0,VALID,20.3495,VALID,134,VALID,0,
2013-08-30, 03:44:04,VALID,916.967,VALID,0,VALID,90.2689,VALID,0,VALID,20.3854,VALID,134,VALID,0,
2013-08-30, 03:45:04,VALID,916.968,VALID,0,VALID,89.1406,VALID,0,VALID,20.4845,VALID,134,VALID,0,
2013-08-30, 03:46:04,VALID,916.953,VALID,0,VALID,88.9805,VALID,0,VALID,20.504,VALID,134,VALID,0,
2013-08-30, 03:47:04,VALID,916.995,VALID,0,VALID,88.3097,VALID,0,VALID,20.582,VALID,137,VALID,0,
2013-08-30, 03:48:04,VALID,916.955,VALID,0,VALID,87.9361,VALID,0,VALID,20.621,VALID,138,VALID,0,
2013-08-30, 03:49:04,VALID,916.987,VALID,0,VALID,87.9971,VALID,0,VALID,20.6194,VALID,138,VALID,0,
2013-08-30, 03:50:04,VALID,916.983,VALID,0,VALID,88.0657,VALID,0,VALID,20.6226,VALID,138,VALID,0,
2013-08-30, 03:51:04,VALID,916.984,VALID,0,VALID,88.1572,VALID,0,VALID,20.6015,VALID,138,VALID,0,
2013-08-30, 03:52:04,VALID,917.001,VALID,0,VALID,88.3783,VALID,0,VALID,20.621,VALID,138,VALID,0,
2013-08-30, 03:53:04,VALID,916.995,VALID,0,VALID,88.5079,VALID,0,VALID,20.582,VALID,138,VALID,0,
2013-08-30, 03:54:04,VALID,916.993,VALID,0,VALID,88.7594,VALID,0,VALID,20.5625,VALID,138,VALID,0,
2013-08-30, 03:55:04,VALID,916.992,VALID,0,VALID,88.9653,VALID,0,VALID,20.543,VALID,138,VALID,0,
2013-08-30, 03:56:04,VALID,917.009,VALID,0,VALID,89.0186,VALID,0,VALID,20.5235,VALID,138,VALID,0,
2013-08-30, 03:57:04,VALID,917.039,VALID,0,VALID,89.2168,VALID,0,VALID,20.5235,VALID,138,VALID,0,
2013-08-30, 03:58:04,VALID,917.06,VALID,0,VALID,89.1101,VALID,0,VALID,20.504,VALID,138,VALID,0,
2013-08-30, 03:59:04,VALID,917.066,VALID,0,VALID,89.4227,VALID,0.107441,VALID,20.5024,VALID,154,VALID,0,